"Period start","avg(HW err(1)/warn(2) (#))","avg(Visibility (m))","avg(Weather code (#))","avg(Precip intensity (mm/h))","min(HW err(1)/warn(2) (#))","max(HW err(1)/warn(2) (#))","std(HW err(1)/warn(2) (#))","med(HW err(1)/warn(2) (#))","min(Visibility (m))","max(Visibility (m))","std(Visibility (m))","med(Visibility (m))","min(Weather code (#))","max(Weather code (#))","std(Weather code (#))","med(Weather code (#))","min(Precip intensity (mm/h))","max(Precip intensity (mm/h))","std(Precip intensity (mm/h))","med(Precip intensity (mm/h))"
2016-01-11 00:00:00,1,,,,1,1,0,1,,,,,,,,,,,,
2016-01-11 00:10:00,1,,,,1,1,0,1,,,,,,,,,,,,
2016-01-11 00:20:00,1,,,,1,1,0,1,,,,,,,,,,,,
2016-01-11 00:30:00,1,,,,1,1,0,1,,,,,,,,,,,,
2016-01-11 00:40:00,1,,,,1,1,0,1,,,,,,,,,,,,
2016-01-11 00:50:00,1,,,,1,1,0,1,,,,,,,,,,,,
2016-01-11 01:00:00,1,0,77,0.15,1,2,0,1,0,0,0,0,77,77,0,77,0.15,0.15,0.00,0.15
2016-01-11 01:10:00,1,0,71,0.10,1,2,0,1,0,0,0,0,71,71,0,71,0.10,0.10,0.00,0.10
2016-01-11 01:20:00,1,,,,1,1,0,1,,,,,,,,,,,,
2016-01-11 01:30:00,1,,,,1,1,0,1,,,,,,,,,,,,
2016-01-11 01:40:00,1,0,71,0.10,1,2,0,1,0,0,0,0,71,71,0,71,0.10,0.10,0.00,0.10
2016-01-11 01:50:00,1,,,,1,1,0,1,,,,,,,,,,,,
2016-01-11 02:00:00,1,3022,71,0.03,1,2,0,1,0,12088,5234,0,71,71,0,71,0.00,0.05,0.03,0.03
2016-01-11 02:10:00,1,0,71,0.10,1,2,0,1,0,0,0,0,71,71,0,71,0.10,0.10,0.00,0.10
2016-01-11 02:20:00,2,8203,71,0.12,1,2,0,2,0,11389,4416,10243,71,71,0,71,0.05,0.25,0.07,0.10
2016-01-11 02:30:00,2,10896,71,0.14,2,2,0,2,10070,12545,706,10819,71,71,0,71,0.00,0.45,0.14,0.08
2016-01-11 02:40:00,2,10632,71,0.16,2,2,0,2,8999,11596,723,10697,71,71,0,71,0.05,0.45,0.13,0.10
2016-01-11 02:50:00,2,10801,71,0.06,2,2,0,2,9621,11739,618,10887,71,71,0,71,0.00,0.20,0.07,0.05
2016-01-11 03:00:00,2,10639,73,0.04,2,2,0,2,9078,11425,631,10710,71,77,3,71,0.00,0.25,0.07,0.03
2016-01-11 03:10:00,2,12344,73,0.03,2,2,0,2,10283,14378,1255,12057,71,77,3,71,0.00,0.10,0.03,0.03
2016-01-11 03:20:00,2,10540,76,0.03,2,2,0,2,7854,13760,2295,10264,71,78,3,78,0.00,0.05,0.02,0.05
2016-01-11 03:30:00,2,7169,77,0.04,2,2,0,2,6415,8171,576,7122,77,78,0,77,0.00,0.05,0.02,0.05
2016-01-11 03:40:00,2,7005,72,0.07,2,2,0,2,6262,7704,408,6964,71,78,2,71,0.00,0.25,0.07,0.05
2016-01-11 03:50:00,2,5283,73,0.15,2,2,0,2,4500,5867,364,5342,71,77,3,71,0.05,0.25,0.06,0.15
2016-01-11 04:00:00,2,3495,71,0.66,2,2,0,2,3138,3988,277,3436,71,71,0,71,0.15,0.95,0.24,0.68
2016-01-11 04:10:00,2,3520,71,0.91,2,2,0,2,3065,3974,236,3533,71,71,0,71,0.40,1.35,0.31,0.90
2016-01-11 04:20:00,2,3434,71,1.04,2,2,0,2,2980,3759,256,3456,71,71,0,71,0.80,1.70,0.25,0.97
2016-01-11 04:30:00,2,3317,71,1.18,2,2,0,2,2565,4023,426,3278,71,71,0,71,0.70,1.60,0.30,1.12
2016-01-11 04:40:00,2,5081,71,0.73,2,2,0,2,2712,7410,1433,4994,71,71,0,71,0.25,1.10,0.32,0.78
2016-01-11 04:50:00,2,8606,71,0.39,2,2,0,2,6868,10130,995,8751,71,71,0,71,0.15,0.70,0.17,0.35
2016-01-11 05:00:00,2,9320,71,0.40,2,2,0,2,5529,11813,1596,9688,71,71,0,71,0.10,1.20,0.34,0.25
2016-01-11 05:10:00,2,11882,71,0.21,2,2,0,2,9513,13818,1095,12024,71,71,0,71,0.05,0.65,0.17,0.15
2016-01-11 05:20:00,2,10087,71,0.24,2,2,0,2,8688,11986,989,9916,71,71,0,71,0.05,0.55,0.17,0.20
2016-01-11 05:30:00,2,11061,71,0.17,2,2,0,2,8510,13616,1501,11212,71,71,0,71,0.00,0.55,0.15,0.15
2016-01-11 05:40:00,2,9216,71,0.29,2,2,0,2,6446,11683,1524,9144,71,71,0,71,0.05,0.85,0.22,0.20
2016-01-11 05:50:00,2,6958,71,0.45,2,2,0,2,4409,8921,1431,7220,71,71,0,71,0.05,1.00,0.25,0.45
2016-01-11 06:00:00,2,3794,71,1.41,2,2,0,2,2697,6166,961,3556,71,71,0,71,0.65,3.10,0.62,1.35
2016-01-11 06:10:00,2,5045,71,0.74,2,2,0,2,3319,7570,1210,4784,71,71,0,71,0.25,1.30,0.37,0.83
2016-01-11 06:20:00,2,5782,71,0.74,2,2,0,2,3767,7469,969,5736,71,71,0,71,0.45,1.70,0.36,0.62
2016-01-11 06:30:00,2,6035,71,0.59,2,2,0,2,4602,7601,954,5795,71,71,0,71,0.40,1.00,0.19,0.47
2016-01-11 06:40:00,2,7697,71,0.54,2,2,0,2,5380,10573,1524,7574,71,71,0,71,0.20,1.00,0.28,0.45
2016-01-11 06:50:00,2,9122,71,0.37,2,2,0,2,5772,12379,1979,9468,71,71,0,71,0.05,1.05,0.34,0.22
2016-01-11 07:00:00,2,10872,71,0.26,2,2,0,2,8037,14851,2202,10462,71,71,0,71,0.05,1.15,0.30,0.15
2016-01-11 07:10:00,2,15153,71,0.07,2,2,0,2,9998,19360,3074,14699,71,71,0,71,0.00,0.40,0.12,0.00
2016-01-11 07:20:00,2,20963,44,0.02,2,2,0,2,18863,25079,1804,20298,0,71,31,56,0.00,0.10,0.03,0.00
2016-01-11 07:30:00,2,22854,0,0.00,2,2,0,2,20865,26552,1737,22221,0,0,0,0,0.00,0.00,0.00,0.00
2016-01-11 07:40:00,2,24186,0,0.00,2,2,0,2,21287,26897,1812,24274,0,0,0,0,0.00,0.00,0.00,0.00
2016-01-11 07:50:00,2,22114,0,0.00,2,2,0,2,19096,24763,1513,21943,0,0,0,0,0.00,0.00,0.00,0.00
2016-01-11 08:00:00,2,21190,0,0.00,2,2,0,2,18685,24086,1737,21217,0,0,0,0,0.00,0.00,0.00,0.00
2016-01-11 08:10:00,2,23558,0,0.00,2,2,0,2,22378,25352,886,23518,0,0,0,0,0.00,0.00,0.00,0.00
2016-01-11 08:20:00,2,13203,0,0.00,2,2,0,2,10122,21057,3491,11499,0,0,0,0,0.00,0.00,0.00,0.00
2016-01-11 08:30:00,2,8285,3,0.00,2,2,0,2,6381,10459,1400,7922,0,10,5,0,0.00,0.00,0.00,0.00
2016-01-11 08:40:00,2,7221,10,0.00,2,2,0,2,5810,8590,789,7135,10,10,0,10,0.00,0.00,0.00,0.00
2016-01-11 08:50:00,2,4991,10,0.00,2,2,0,2,4218,6082,533,4897,10,10,0,10,0.00,0.00,0.00,0.00
2016-01-11 09:00:00,2,6563,10,0.00,2,2,0,2,5025,7399,725,6767,10,10,0,10,0.00,0.00,0.00,0.00
2016-01-11 09:10:00,2,6891,10,0.00,2,2,0,2,6269,7888,486,6836,10,10,0,10,0.00,0.00,0.00,0.00
2016-01-11 09:20:00,2,4823,28,0.03,2,2,0,2,3090,6459,1009,4749,10,71,28,10,0.00,0.30,0.09,0.00
2016-01-11 09:30:00,2,3133,10,0.00,2,2,0,2,2638,3453,247,3120,10,10,0,10,0.00,0.00,0.00,0.00
2016-01-11 09:40:00,2,2886,10,0.00,2,2,0,2,2555,3569,303,2822,10,10,0,10,0.00,0.00,0.00,0.00
2016-01-11 09:50:00,2,2770,22,0.01,2,2,0,2,1972,3489,447,2811,10,71,24,10,0.00,0.05,0.02,0.00
2016-01-11 10:00:00,2,2185,75,0.05,2,2,0,2,1897,2492,225,2182,71,77,3,77,0.00,0.20,0.08,0.00
2016-01-11 10:10:00,2,2362,67,0.01,2,2,0,2,2113,2609,156,2385,10,77,19,71,0.00,0.05,0.02,0.00
2016-01-11 10:20:00,2,2525,10,0.00,2,2,0,2,2076,3088,258,2500,10,10,0,10,0.00,0.00,0.00,0.00
2016-01-11 10:30:00,2,3867,10,0.00,2,2,0,2,2664,5605,958,3508,10,10,0,10,0.00,0.00,0.00,0.00
2016-01-11 10:40:00,2,6040,10,0.00,2,2,0,2,5344,7485,594,5844,10,10,0,10,0.00,0.00,0.00,0.00
2016-01-11 10:50:00,2,6960,10,0.00,2,2,0,2,6040,8722,710,6842,10,10,0,10,0.00,0.00,0.00,0.00
2016-01-11 11:00:00,2,6457,10,0.00,2,2,0,2,4636,7308,770,6754,10,10,0,10,0.00,0.00,0.00,0.00
2016-01-11 11:10:00,2,7790,10,0.00,2,2,0,2,5794,10610,1734,7883,10,10,0,10,0.00,0.00,0.00,0.00
2016-01-11 11:20:00,2,11840,9,0.00,2,2,0,2,8782,12796,1115,12183,0,10,3,10,0.00,0.00,0.00,0.00
2016-01-11 11:30:00,2,13846,0,0.00,2,2,0,2,10143,16307,1919,13960,0,0,0,0,0.00,0.00,0.00,0.00
2016-01-11 11:40:00,2,15252,7,0.01,2,2,0,2,3988,20703,4506,16033,0,71,21,0,0.00,0.05,0.02,0.00
2016-01-11 11:50:00,2,9485,77,0.02,2,2,0,2,4288,15915,3484,9647,71,78,2,78,0.00,0.15,0.05,0.00
2016-01-11 12:00:00,2,15604,78,0.00,2,2,0,2,10739,19342,3109,16045,78,78,0,78,0.00,0.00,0.00,0.00
2016-01-11 12:10:00,2,17761,47,0.00,2,2,0,2,11595,22313,3551,18226,0,78,38,78,0.00,0.00,0.00,0.00
2016-01-11 12:20:00,2,12212,0,0.00,2,2,0,2,5357,18475,4161,11700,0,0,0,0,0.00,0.00,0.00,0.00
2016-01-11 12:30:00,2,7247,61,0.04,2,2,0,2,3403,16832,4419,5174,0,78,31,78,0.00,0.10,0.03,0.05
2016-01-11 12:40:00,2,14609,37,0.03,2,2,0,2,7480,30248,8446,10006,0,78,37,36,0.00,0.15,0.05,0.00
2016-01-11 12:50:00,2,7281,74,0.17,2,2,0,2,1782,11927,3425,7720,71,78,3,71,0.00,1.05,0.31,0.05
2016-01-11 13:00:00,2,10054,43,0.00,2,2,0,2,6664,11765,1436,10584,10,78,33,40,0.00,0.00,0.00,0.00
2016-01-11 13:10:00,2,9064,78,0.01,2,2,0,2,6960,11330,1559,8878,78,78,0,78,0.00,0.05,0.02,0.00
2016-01-11 13:20:00,2,10936,78,0.00,2,2,0,2,8546,13695,1437,11232,78,78,0,78,0.00,0.00,0.00,0.00
2016-01-11 13:30:00,2,7701,78,0.01,2,2,0,2,4544,12279,2356,7741,78,78,0,78,0.00,0.05,0.02,0.00
2016-01-11 13:40:00,2,11652,49,0.01,2,2,0,2,3751,16736,4016,11010,10,78,32,71,0.00,0.05,0.02,0.00
2016-01-11 13:50:00,2,7334,78,0.05,2,2,0,2,3017,10443,2206,7194,77,78,0,78,0.00,0.25,0.07,0.03
2016-01-11 14:00:00,2,17358,40,0.00,2,2,0,2,12509,20737,2297,17128,0,78,38,44,0.00,0.00,0.00,0.00
2016-01-11 14:10:00,2,16439,0,0.00,2,2,0,2,13715,19525,1850,16100,0,0,0,0,0.00,0.00,0.00,0.00
2016-01-11 14:20:00,2,14583,0,0.00,2,2,0,2,9972,18222,2617,14834,0,0,0,0,0.00,0.00,0.00,0.00
2016-01-11 14:30:00,2,10538,0,0.00,2,2,0,2,6426,14624,3238,10757,0,0,0,0,0.00,0.00,0.00,0.00
2016-01-11 14:40:00,2,6177,9,0.00,2,2,0,2,3878,8726,1701,5982,0,10,3,10,0.00,0.00,0.00,0.00
2016-01-11 14:50:00,2,3554,10,0.00,2,2,0,2,2983,4107,396,3626,10,10,0,10,0.00,0.00,0.00,0.00
2016-01-11 15:00:00,2,3564,10,0.00,2,2,0,2,3169,3880,191,3592,10,10,0,10,0.00,0.00,0.00,0.00
2016-01-11 15:10:00,2,3764,10,0.00,2,2,0,2,3319,4063,212,3828,10,10,0,10,0.00,0.00,0.00,0.00
2016-01-11 15:20:00,2,4482,10,0.00,2,2,0,2,3330,6852,1122,4106,10,10,0,10,0.00,0.00,0.00,0.00
2016-01-11 15:30:00,2,5756,10,0.00,2,2,0,2,4722,6723,642,5763,10,10,0,10,0.00,0.00,0.00,0.00
2016-01-11 15:40:00,2,7736,10,0.00,2,2,0,2,5890,8909,925,7838,10,10,0,10,0.00,0.00,0.00,0.00
2016-01-11 15:50:00,2,9309,10,0.00,2,2,0,2,7190,10442,879,9530,10,10,0,10,0.00,0.00,0.00,0.00
2016-01-11 16:00:00,2,6686,10,0.00,2,2,0,2,5655,8258,614,6632,10,10,0,10,0.00,0.00,0.00,0.00
2016-01-11 16:10:00,2,4663,16,0.00,2,2,0,2,3097,6656,1185,4302,10,71,18,10,0.00,0.00,0.00,0.00
2016-01-11 16:20:00,2,3783,75,0.03,2,2,0,2,2803,4581,633,3866,71,77,3,77,0.00,0.10,0.03,0.00
2016-01-11 16:30:00,2,3760,75,0.04,2,2,0,2,3573,4035,144,3732,71,77,3,77,0.00,0.20,0.06,0.05
2016-01-11 16:40:00,2,4192,77,0.04,2,2,0,2,3415,5457,560,3944,77,77,0,77,0.00,0.05,0.02,0.05
2016-01-11 16:50:00,2,4522,77,0.01,2,2,0,2,3622,5824,639,4349,77,77,0,77,0.00,0.05,0.02,0.00
2016-01-11 17:00:00,2,3774,77,0.02,2,2,0,2,2826,4310,466,3949,77,77,0,77,0.00,0.05,0.02,0.00
2016-01-11 17:10:00,2,3463,77,0.03,2,2,0,2,2941,3831,287,3516,77,77,0,77,0.00,0.15,0.05,0.00
2016-01-11 17:20:00,2,3728,73,0.04,2,2,0,2,2599,5154,833,3368,71,77,3,71,0.00,0.10,0.03,0.05
2016-01-11 17:30:00,2,4998,78,0.00,2,2,0,2,4467,5593,441,4876,77,78,0,78,0.00,0.00,0.00,0.00
2016-01-11 17:40:00,2,6296,78,0.00,2,2,0,2,5353,7124,610,6536,78,78,0,78,0.00,0.00,0.00,0.00
2016-01-11 17:50:00,2,7160,78,0.00,2,2,0,2,5903,8484,789,7070,78,78,0,78,0.00,0.00,0.00,0.00
2016-01-11 18:00:00,2,8395,78,0.00,2,2,0,2,7825,9277,460,8338,78,78,0,78,0.00,0.00,0.00,0.00
2016-01-11 18:10:00,2,8028,78,0.00,2,2,0,2,6959,9167,674,8094,78,78,0,78,0.00,0.00,0.00,0.00
2016-01-11 18:20:00,2,7230,78,0.01,2,2,0,2,6597,7712,362,7320,78,78,0,78,0.00,0.05,0.02,0.00
2016-01-11 18:30:00,2,8091,78,0.00,2,2,0,2,7195,9291,580,8026,78,78,0,78,0.00,0.00,0.00,0.00
2016-01-11 18:40:00,2,9174,78,0.00,2,2,0,2,7615,10165,824,9476,78,78,0,78,0.00,0.00,0.00,0.00
2016-01-11 18:50:00,2,9933,78,0.00,2,2,0,2,8772,11157,849,9932,78,78,0,78,0.00,0.00,0.00,0.00
2016-01-11 19:00:00,2,10843,78,0.00,2,2,0,2,9710,12864,850,10754,78,78,0,78,0.00,0.00,0.00,0.00
2016-01-11 19:10:00,2,11414,78,0.00,2,2,0,2,10276,13051,775,11488,78,78,0,78,0.00,0.00,0.00,0.00
2016-01-11 19:20:00,2,12967,78,0.00,2,2,0,2,11423,15477,1096,12828,78,78,0,78,0.00,0.00,0.00,0.00
2016-01-11 19:30:00,2,12287,78,0.00,2,2,0,2,10762,13678,823,12498,78,78,0,78,0.00,0.00,0.00,0.00
2016-01-11 19:40:00,2,13848,78,0.00,2,2,0,2,11312,17104,1905,13564,78,78,0,78,0.00,0.00,0.00,0.00
2016-01-11 19:50:00,2,16227,78,0.00,2,2,0,2,14117,18272,1378,16324,78,78,0,78,0.00,0.00,0.00,0.00
2016-01-11 20:00:00,2,15508,31,0.00,2,2,0,2,13525,16845,1095,15820,0,78,38,0,0.00,0.00,0.00,0.00
2016-01-11 20:10:00,2,11117,0,0.00,2,2,0,2,7709,14490,2074,11070,0,0,0,0,0.00,0.00,0.00,0.00
2016-01-11 20:20:00,2,11640,0,0.00,2,2,0,2,8147,16723,2272,11237,0,0,0,0,0.00,0.00,0.00,0.00
2016-01-11 20:30:00,2,15582,0,0.00,2,2,0,2,13668,20159,1757,14919,0,0,0,0,0.00,0.00,0.00,0.00
2016-01-11 20:40:00,2,19458,0,0.00,2,2,0,2,16525,22837,1922,19408,0,0,0,0,0.00,0.00,0.00,0.00
2016-01-11 20:50:00,2,22071,0,0.00,2,2,0,2,16990,32276,4681,20498,0,0,0,0,0.00,0.00,0.00,0.00
2016-01-11 21:00:00,2,17674,0,0.00,2,2,0,2,12775,22920,3467,17462,0,0,0,0,0.00,0.00,0.00,0.00
2016-01-11 21:10:00,2,22214,0,0.00,2,2,0,2,19386,24861,1622,22524,0,0,0,0,0.00,0.00,0.00,0.00
2016-01-11 21:20:00,2,17947,0,0.00,2,2,0,2,14640,20359,2010,18278,0,0,0,0,0.00,0.00,0.00,0.00
2016-01-11 21:30:00,2,20844,0,0.00,2,2,0,2,15848,23507,2385,21366,0,0,0,0,0.00,0.00,0.00,0.00
2016-01-11 21:40:00,2,16043,0,0.00,2,2,0,2,10923,22228,3138,16495,0,0,0,0,0.00,0.00,0.00,0.00
2016-01-11 21:50:00,2,9455,69,0.15,2,2,0,2,1783,16318,5035,10442,0,78,23,78,0.00,1.10,0.33,0.00
2016-01-11 22:00:00,2,7358,75,0.27,2,2,0,2,1608,17441,5450,6194,71,78,3,77,0.00,0.90,0.31,0.08
2016-01-11 22:10:00,2,10834,60,0.02,2,2,0,2,4576,17443,4474,12162,0,78,30,74,0.00,0.10,0.03,0.00
2016-01-11 22:20:00,2,4817,78,0.07,2,2,0,2,2826,6811,1302,4482,78,78,0,78,0.00,0.20,0.06,0.05
2016-01-11 22:30:00,2,9492,78,0.02,2,2,0,2,4849,15647,3034,9537,78,78,0,78,0.00,0.10,0.03,0.00
2016-01-11 22:40:00,2,5331,77,0.44,2,2,0,2,1074,12782,4192,3437,71,78,2,78,0.00,1.60,0.50,0.23
2016-01-11 22:50:00,2,8431,74,0.07,2,2,0,2,3397,15911,3714,8812,71,78,3,71,0.00,0.25,0.08,0.03
2016-01-11 23:00:00,2,8112,78,0.01,2,2,0,2,3858,13090,3085,6654,78,78,0,78,0.00,0.05,0.02,0.00
2016-01-11 23:10:00,2,21960,33,0.01,2,2,0,2,4258,40504,11209,22482,0,78,34,10,0.00,0.10,0.03,0.00
2016-01-11 23:20:00,2,16754,0,0.00,2,2,0,2,9285,22172,4029,17125,0,0,0,0,0.00,0.00,0.00,0.00
2016-01-11 23:30:00,2,22556,0,0.00,2,2,0,2,16962,37067,5952,19586,0,0,0,0,0.00,0.00,0.00,0.00
2016-01-11 23:40:00,2,12237,69,0.00,2,2,0,2,7773,18896,3888,10725,0,78,23,78,0.00,0.00,0.00,0.00
2016-01-11 23:50:00,2,8337,78,0.01,2,2,0,2,5482,12489,1969,7900,78,78,0,78,0.00,0.05,0.02,0.00
